{"data":{"norad_id":66027,"epoch":"2026-09-20T00:29:03.984864Z","epoch_age_seconds":144478,"freshness":"FRESH","line1":"1 66027U 25232Y   26263.02018501  .00015179  00000+0  45949-3 0  9997","line2":"2 66027  53.1578 278.0479 0001193  88.6445 271.4694 15.34398336 53239","mean_motion":15.34398336,"eccentricity":0.0001193,"inclination_deg":53.1578,"raan_deg":278.0479,"arg_perigee_deg":88.6445,"mean_anomaly_deg":271.4694,"bstar":0.00045949,"rev_number":5323,"period_min":93.847859855865,"perigee_km":461.89207313956,"apogee_km":463.52429880093,"semimajor_km":6840.8451859702,"source":"CELESTRAK","updated_at":"2026-09-21T09:00:35.772804Z"}}